Weather History for KNYL - May, 2013

Change the Weather History Date:

Tuesday, May 14, 2013

  Actual Average Record
Temperature  
Mean Temperature 90 °F 81 °F  
Max Temperature 104 °F 95 °F 113 °F (1927)
Min Temperature 76 °F 67 °F 52 °F (1933)
Degree Days  
Heating Degree Days 0 0  
Month to date heating degree days 0 0  
Since 1 July heating degree days 705 686  
Cooling Degree Days 25 16  
Month to date cooling degree days 223 198  
Year to date cooling degree days 742 604  
Growing Degree Days 40 (Base 50)    
Moisture  
Dew Point 40 °F    
Average Humidity 25    
Maximum Humidity 40    
Minimum Humidity 9    
Precipitation  
Precipitation 0.00 in 0.00 in 0.01 in (2003)
Month to date precipitation 0.00 0.04  
Year to date precipitation 1.11 1.28  
Sea Level Pressure  
Sea Level Pressure 29.81 in    
Wind  
Wind Speed 9 mph (SSW)    
Max Wind Speed 23 mph    
Max Gust Speed 26 mph    
Visibility 10 miles    
Events      
T = Trace of Precipitation, MM = Missing Value Source: NWS Daily Summary

Daily Weather History Graph

Daily Weather History Graph

Search for Another Location

Airport or City:

Trip Planner

Search our weather history database for the weather conditions in past years. The results will help you decide how hot, cold, wet, or windy it might be!

Date:

Astronomy

May. 14, 2013 Rise Set
Actual Time 5:40 AM MST 7:29 PM MST
Civil Twilight 5:13 AM MST 7:56 PM MST
Nautical Twilight 4:40 AM MST 8:29 PM MST
Astronomical Twilight 4:05 AM MST 9:04 PM MST
Moon 9:23 AM MST (5/14) 11:21 PM MST (5/14)
Length of Visible Light 14h 43m
Length of Day
13h 49m
Waxing Crescent, 19% of the Moon is Illuminated
May 14
Waxing Crescent
May 17
First Quarter
May 24
Full
May 31
Last Quarter
Jun 8
New

Hourly Weather History & Observations

Time (MST) Temp. Dew Point Humidity Pressure Visibility Wind Dir Wind Speed Gust Speed Precip Events Conditions
12:57 AM 84.0 °F 39.0 °F 20% 29.79 in 10.0 mi Calm Calm - N/A   Clear
1:57 AM 82.0 °F 39.0 °F 22% 29.78 in 10.0 mi Calm Calm - N/A   Clear
2:57 AM 81.0 °F 36.0 °F 20% 29.78 in 10.0 mi SE 3.5 mph - N/A   Clear
3:57 AM 77.0 °F 51.1 °F 40% 29.79 in 10.0 mi SSE 12.7 mph - N/A   Clear
4:57 AM 79.0 °F 46.9 °F 32% 29.80 in 10.0 mi SSE 16.1 mph - N/A   Partly Cloudy
5:57 AM 78.1 °F 44.1 °F 30% 29.81 in 10.0 mi SSE 18.4 mph - N/A   Scattered Clouds
6:57 AM 81.0 °F 43.0 °F 26% 29.83 in 10.0 mi SSE 15.0 mph - N/A   Scattered Clouds
7:57 AM 84.9 °F 39.9 °F 20% 29.86 in 10.0 mi SSE 15.0 mph 26.5 mph N/A   Scattered Clouds
8:57 AM 89.1 °F 37.0 °F 16% 29.86 in 10.0 mi SSE 16.1 mph - N/A   Partly Cloudy
9:57 AM 91.9 °F 37.0 °F 15% 29.86 in 10.0 mi South 15.0 mph - N/A   Partly Cloudy
10:57 AM 96.1 °F 36.0 °F 12% 29.87 in 10.0 mi SSW 13.8 mph - N/A   Partly Cloudy
11:57 AM 99.0 °F 37.9 °F 12% 29.85 in 10.0 mi South 11.5 mph - N/A   Partly Cloudy
12:57 PM 100.9 °F 37.9 °F 11% 29.83 in 10.0 mi West 9.2 mph - N/A   Partly Cloudy
1:57 PM 102.0 °F 37.0 °F 11% 29.81 in 10.0 mi West 11.5 mph - N/A   Partly Cloudy
2:57 PM 102.9 °F 36.0 °F 10% 29.78 in 10.0 mi West 10.4 mph - N/A   Partly Cloudy
3:57 PM 102.9 °F 36.0 °F 10% 29.76 in 10.0 mi Variable 5.8 mph - N/A   Partly Cloudy
4:57 PM 102.9 °F 34.0 °F 9% 29.74 in 10.0 mi Variable 5.8 mph - N/A   Partly Cloudy
5:57 PM 102.0 °F 35.1 °F 10% 29.73 in 10.0 mi South 9.2 mph - N/A   Scattered Clouds
6:57 PM 99.0 °F 39.9 °F 13% 29.73 in 10.0 mi South 10.4 mph - N/A   Scattered Clouds
7:57 PM 91.0 °F 45.0 °F 20% 29.78 in 10.0 mi WSW 9.2 mph - N/A   Scattered Clouds
8:57 PM 87.1 °F 46.0 °F 24% 29.80 in 10.0 mi SW 5.8 mph - N/A   Scattered Clouds
9:57 PM 84.9 °F 44.1 °F 24% 29.83 in 10.0 mi WSW 3.5 mph - N/A   Scattered Clouds
10:57 PM 82.0 °F 46.9 °F 29% 29.83 in 10.0 mi Calm Calm - N/A   Scattered Clouds
11:57 PM 82.0 °F 45.0 °F 27% 29.82 in 10.0 mi SSE 6.9 mph - N/A   Scattered Clouds